Location: Dürabuch
(48.2640°N, 11.2185°E)
Time: 09:32:55
(UTC+00:00)

Cosmos 2322 Rocket - Pass Details

Date: 23 May 2024
Orbit: 832 x 850 km, 71.0° (Epoch: 15 June)

Event Time Altitude Azimuth Distance (km) Brightness Sun altitude
Rises 00:51:31 0° 334° (NNW) 3,400 5.9 -17.6°
Reaches altitude 10° 00:54:01 10° 338° (NNW) 2,465 5.2 -17.4°
Maximum altitude 00:59:36 60° 58° (ENE) 965 2.7 -17.0°
Drops below altitude 10° 01:05:11 10° 138° (SE) 2,462 4.4 -16.6°
Sets 01:07:40 0° 142° (SE) 3,396 5.1 -16.4°
